| time (UTC) | temp C | wind direction | speed KPH | gust KPH | rain 1hr cm | rain 24hr cm | rain mn cm | humidity % | barometer mb |
| 20260506025848 | 22 | 152 | 1.6 | 9.7 | 0.00 | 0.20 | 0.20 | 45 | 1010.3 |
| 20260506025345 | 22 | 181 | 6.4 | 17.7 | 0.00 | 0.20 | 0.20 | 45 | 1010.2 |
| 20260506024842 | 22 | 177 | 6.4 | 6.4 | 0.00 | 0.20 | 0.20 | 45 | 1010.3 |
| 20260506024338 | 22 | 122 | 6.4 | 11.3 | 0.00 | 0.20 | 0.20 | 44 | 1010.3 |
| 20260506023834 | 22 | 136 | 4.8 | 16.1 | 0.00 | 0.20 | 0.20 | 44 | 1010.2 |
| 20260506023331 | 22 | 169 | 4.8 | 8.0 | 0.00 | 0.20 | 0.20 | 44 | 1010.2 |
| 20260506022828 | 22 | 286 | 1.6 | 17.7 | 0.00 | 0.20 | 0.20 | 43 | 1010.1 |
| 20260506022326 | 22 | 199 | 8.0 | 12.9 | 0.00 | 0.20 | 0.20 | 43 | 1010.2 |
| 20260506021824 | 22 | 189 | 6.4 | 20.9 | 0.00 | 0.20 | 0.20 | 43 | 1010.1 |
| 20260506021320 | 22 | 66 | 4.8 | 12.9 | 0.00 | 0.20 | 0.20 | 42 | 1010.4 |
| 20260506020817 | 23 | 174 | 11.3 | 16.1 | 0.00 | 0.20 | 0.20 | 42 | 1010.3 |
| 20260506020315 | 23 | 212 | 6.4 | 12.9 | 0.00 | 0.20 | 0.20 | 41 | 1010.1 |
| 20260506015812 | 23 | 152 | 6.4 | 19.3 | 0.00 | 0.20 | 0.20 | 41 | 1010.2 |
| 20260506015310 | 23 | 129 | 3.2 | 12.9 | 0.00 | 0.20 | 0.20 | 41 | 1009.9 |
| 20260506014806 | 23 | 162 | 3.2 | 14.5 | 0.00 | 0.20 | 0.20 | 40 | 1010.2 |
| 20260506014303 | 23 | 167 | 3.2 | 14.5 | 0.00 | 0.20 | 0.20 | 40 | 1010.2 |
| 20260506013800 | 23 | 183 | 12.9 | 20.9 | 0.00 | 0.20 | 0.20 | 40 | 1010.0 |
| 20260506013257 | 23 | 114 | 4.8 | 14.5 | 0.00 | 0.20 | 0.20 | 39 | 1010.1 |
| 20260506012754 | 23 | 226 | 3.2 | 9.7 | 0.00 | 0.20 | 0.20 | 39 | 1010.0 |
| 20260506012250 | 23 | 215 | 9.7 | 9.7 | 0.00 | 0.20 | 0.20 | 39 | 1009.8 |
| 20260506011748 | 23 | 187 | 11.3 | 14.5 | 0.00 | 0.20 | 0.20 | 38 | 1009.8 |
| 20260506011244 | 23 | 220 | 6.4 | 22.5 | 0.00 | 0.20 | 0.20 | 38 | 1009.7 |
| 20260506010742 | 24 | 253 | 6.4 | 20.9 | 0.00 | 0.20 | 0.20 | 38 | 1009.7 |
| 20260506010239 | 24 | 177 | 8.0 | 30.6 | 0.00 | 0.20 | 0.20 | 38 | 1009.5 |
| 20260506005737 | 24 | 173 | 3.2 | 16.1 | 0.00 | 0.20 | 0.20 | 38 | 1009.5 |
| 20260506005233 | 24 | 218 | 19.3 | 27.4 | 0.00 | 0.20 | 0.20 | 37 | 1009.4 |
| 20260506004729 | 24 | 188 | 8.0 | 20.9 | 0.00 | 0.20 | 0.20 | 38 | 1009.4 |
| 20260506004227 | 24 | 188 | 9.7 | 19.3 | 0.00 | 0.20 | 0.20 | 37 | 1009.3 |
| 20260506003723 | 24 | 206 | 14.5 | 19.3 | 0.00 | 0.20 | 0.20 | 37 | 1009.6 |
| 20260506003219 | 24 | 191 | 4.8 | 27.4 | 0.00 | 0.20 | 0.20 | 37 | 1009.4 |
| 20260506002715 | 24 | 228 | 4.8 | 9.7 | 0.00 | 0.20 | 0.20 | 38 | 1009.3 |
| 20260506002212 | 24 | 207 | 1.6 | 19.3 | 0.00 | 0.20 | 0.20 | 38 | 1009.2 |
| 20260506001708 | 24 | 269 | 3.2 | 19.3 | 0.00 | 0.20 | 0.20 | 38 | 1008.9 |
| 20260506001205 | 25 | 186 | 4.8 | 12.9 | 0.00 | 0.20 | 0.20 | 38 | 1008.8 |
| 20260506000702 | 25 | 215 | 12.9 | 17.7 | 0.00 | 0.20 | 0.20 | 37 | 1008.9 |
| 20260506000159 | 25 | 212 | 14.5 | 14.5 | 0.00 | 0.20 | 0.20 | 37 | 1008.9 |
| 20260505235657 | 25 | 177 | 6.4 | 20.9 | 0.00 | 0.20 | 0.20 | 37 | 1008.8 |
| 20260505235154 | 25 | 185 | 4.8 | 17.7 | 0.00 | 0.20 | 0.20 | 36 | 1008.9 |
| 20260505234651 | 25 | 164 | 6.4 | 19.3 | 0.00 | 0.20 | 0.20 | 36 | 1008.8 |
| 20260505234148 | 25 | 188 | 12.9 | 29.0 | 0.00 | 0.20 | 0.20 | 36 | 1008.7 |
| 20260505233645 | 25 | 169 | 9.7 | 29.0 | 0.00 | 0.20 | 0.20 | 36 | 1008.8 |
| 20260505233142 | 25 | 180 | 11.3 | 16.1 | 0.00 | 0.20 | 0.20 | 36 | 1008.8 |
| 20260505232640 | 25 | 193 | 9.7 | 19.3 | 0.00 | 0.20 | 0.20 | 36 | 1008.8 |
| 20260505232137 | 25 | 156 | 3.2 | 16.1 | 0.00 | 0.20 | 0.20 | 35 | 1008.5 |
| 20260505231634 | 26 | 224 | 6.4 | 12.9 | 0.00 | 0.20 | 0.20 | 35 | 1008.6 |
| 20260505231133 | 26 | 213 | 11.3 | 22.5 | 0.00 | 0.20 | 0.20 | 35 | 1008.5 |
| 20260505230630 | 26 | 154 | 8.0 | 25.7 | 0.00 | 0.20 | 0.20 | 34 | 1008.6 |
| 20260505230126 | 26 | 231 | 9.7 | 20.9 | 0.00 | 0.20 | 0.20 | 34 | 1008.4 |
| 20260505225623 | 26 | 174 | 9.7 | 27.4 | 0.00 | 0.20 | 0.20 | 34 | 1008.6 |
| 20260505225119 | 26 | 219 | 22.5 | 30.6 | 0.00 | 0.20 | 0.20 | 34 | 1008.3 |
| 20260505224616 | 26 | 224 | 19.3 | 24.1 | 0.00 | 0.20 | 0.20 | 34 | 1008.5 |
| 20260505224113 | 26 | 197 | 14.5 | 20.9 | 0.00 | 0.20 | 0.20 | 34 | 1008.4 |
| 20260505223610 | 27 | 249 | 11.3 | 24.1 | 0.00 | 0.20 | 0.20 | 33 | 1008.4 |
| 20260505223107 | 27 | 217 | 3.2 | 17.7 | 0.00 | 0.20 | 0.20 | 34 | 1008.4 |
| 20260505222603 | 27 | 197 | 3.2 | 16.1 | 0.00 | 0.20 | 0.20 | 33 | 1008.5 |
| 20260505222059 | 27 | 196 | 9.7 | 32.2 | 0.00 | 0.20 | 0.20 | 32 | 1008.4 |
| 20260505221556 | 27 | 198 | 6.4 | 30.6 | 0.00 | 0.20 | 0.20 | 32 | 1008.2 |
| 20260505221053 | 27 | 215 | 12.9 | 22.5 | 0.00 | 0.20 | 0.20 | 31 | 1008.3 |
| 20260505220550 | 27 | 216 | 12.9 | 27.4 | 0.00 | 0.20 | 0.20 | 31 | 1008.2 |
| 20260505220048 | 27 | 194 | 6.4 | 22.5 | 0.00 | 0.20 | 0.20 | 32 | 1008.0 |
| 20260505215546 | 27 | 202 | 12.9 | 16.1 | 0.00 | 0.20 | 0.20 | 33 | 1008.0 |
| 20260505215043 | 27 | 214 | 3.2 | 22.5 | 0.00 | 0.20 | 0.20 | 33 | 1008.1 |
| 20260505214541 | 27 | 197 | 9.7 | 16.1 | 0.00 | 0.20 | 0.20 | 34 | 1008.2 |
| 20260505214038 | 27 | 196 | 12.9 | 25.7 | 0.00 | 0.20 | 0.20 | 32 | 1008.4 |
| 20260505213536 | 27 | 200 | 8.0 | 29.0 | 0.00 | 0.20 | 0.20 | 33 | 1008.3 |
| 20260505213031 | 27 | 197 | 24.1 | 24.1 | 0.00 | 0.20 | 0.20 | 33 | 1008.2 |
| 20260505212528 | 27 | 180 | 6.4 | 24.1 | 0.00 | 0.20 | 0.20 | 33 | 1008.1 |
| 20260505212026 | 27 | 187 | 8.0 | 17.7 | 0.00 | 0.20 | 0.20 | 32 | 1008.1 |
| 20260505211523 | 27 | 212 | 20.9 | 27.4 | 0.00 | 0.20 | 0.20 | 32 | 1008.0 |
| 20260505211019 | 27 | 176 | 9.7 | 24.1 | 0.00 | 0.20 | 0.20 | 32 | 1008.2 |
| 20260505210516 | 28 | 238 | 11.3 | 22.5 | 0.00 | 0.20 | 0.20 | 31 | 1008.2 |
| 20260505210013 | 28 | 206 | 6.4 | 24.1 | 0.00 | 0.20 | 0.20 | 30 | 1008.2 |
| 20260505205511 | 28 | 210 | 14.5 | 20.9 | 0.00 | 0.20 | 0.20 | 31 | 1008.1 |
| 20260505205008 | 28 | 195 | 12.9 | 19.3 | 0.00 | 0.20 | 0.20 | 31 | 1008.2 |
| 20260505204506 | 28 | 180 | 11.3 | 35.4 | 0.00 | 0.20 | 0.20 | 30 | 1008.0 |
| 20260505204003 | 28 | 223 | 17.7 | 29.0 | 0.00 | 0.20 | 0.20 | 30 | 1008.0 |
| 20260505203459 | 28 | 192 | 12.9 | 29.0 | 0.00 | 0.20 | 0.20 | 31 | 1008.1 |
| 20260505202955 | 28 | 197 | 16.1 | 19.3 | 0.00 | 0.20 | 0.20 | 31 | 1008.0 |
| 20260505202452 | 28 | 201 | 11.3 | 25.7 | 0.00 | 0.20 | 0.20 | 31 | 1008.0 |
| 20260505201948 | 28 | 190 | 12.9 | 20.9 | 0.00 | 0.20 | 0.20 | 31 | 1007.8 |
| 20260505201445 | 27 | 225 | 8.0 | 17.7 | 0.00 | 0.20 | 0.20 | 32 | 1008.1 |
| 20260505200943 | 27 | 211 | 19.3 | 33.8 | 0.00 | 0.20 | 0.20 | 31 | 1008.1 |
| 20260505200441 | 27 | 199 | 12.9 | 17.7 | 0.00 | 0.20 | 0.20 | 32 | 1008.3 |
| 20260505195936 | 28 | 197 | 20.9 | 27.4 | 0.00 | 0.20 | 0.20 | 31 | 1008.2 |
| 20260505195433 | 27 | 201 | 8.0 | 24.1 | 0.00 | 0.20 | 0.20 | 32 | 1008.3 |
| 20260505194931 | 28 | 184 | 9.7 | 24.1 | 0.00 | 0.20 | 0.20 | 32 | 1008.4 |
| 20260505194428 | 28 | 231 | 17.7 | 24.1 | 0.00 | 0.20 | 0.20 | 33 | 1008.1 |
| 20260505193928 | 28 | 188 | 9.7 | 17.7 | 0.00 | 0.20 | 0.20 | 32 | 1008.2 |
| 20260505193426 | 28 | 225 | 11.3 | 32.2 | 0.00 | 0.20 | 0.20 | 32 | 1008.4 |
| 20260505192924 | 29 | 214 | 14.5 | 30.6 | 0.00 | 0.20 | 0.20 | 31 | 1008.4 |
| 20260505192421 | 28 | 174 | 3.2 | 16.1 | 0.00 | 0.20 | 0.20 | 34 | 1008.4 |
| 20260505191919 | 28 | 149 | 11.3 | 14.5 | 0.00 | 0.20 | 0.20 | 35 | 1008.6 |
| 20260505191417 | 28 | 227 | 8.0 | 14.5 | 0.00 | 0.20 | 0.20 | 33 | 1008.2 |
| 20260505190914 | 28 | 205 | 6.4 | 24.1 | 0.00 | 0.20 | 0.20 | 33 | 1008.5 |
| 20260505190409 | 28 | 208 | 20.9 | 32.2 | 0.00 | 0.20 | 0.20 | 30 | 1008.4 |
| 20260505185904 | 28 | 208 | 6.4 | 14.5 | 0.00 | 0.20 | 0.20 | 32 | 1008.7 |
| 20260505185402 | 28 | 204 | 4.8 | 17.7 | 0.00 | 0.20 | 0.20 | 31 | 1008.8 |
| 20260505184858 | 28 | 219 | 12.9 | 24.1 | 0.00 | 0.20 | 0.20 | 31 | 1008.8 |
| 20260505184355 | 28 | 212 | 6.4 | 24.1 | 0.00 | 0.20 | 0.20 | 30 | 1008.9 |
| 20260505183852 | 28 | 198 | 16.1 | 24.1 | 0.00 | 0.20 | 0.20 | 29 | 1008.6 |
| 20260505183349 | 28 | 204 | 8.0 | 20.9 | 0.00 | 0.20 | 0.20 | 31 | 1009.0 |
| 20260505182846 | 28 | 185 | 17.7 | 25.7 | 0.00 | 0.20 | 0.20 | 30 | 1008.9 |
| 20260505182342 | 28 | 212 | 8.0 | 20.9 | 0.00 | 0.20 | 0.20 | 30 | 1009.4 |
| 20260505181839 | 28 | 227 | 16.1 | 17.7 | 0.00 | 0.20 | 0.20 | 30 | 1008.9 |
| 20260505181336 | 28 | 283 | 17.7 | 20.9 | 0.00 | 0.20 | 0.20 | 30 | 1009.0 |
| 20260505180833 | 27 | 206 | 4.8 | 17.7 | 0.00 | 0.20 | 0.20 | 32 | 1009.3 |
| 20260505180329 | 27 | 162 | 6.4 | 29.0 | 0.00 | 0.20 | 0.20 | 32 | 1009.4 |
| 20260505175826 | 28 | 209 | 17.7 | 29.0 | 0.00 | 0.20 | 0.20 | 32 | 1009.7 |
| 20260505175322 | 27 | 226 | 14.5 | 22.5 | 0.00 | 0.20 | 0.20 | 33 | 1009.5 |
| 20260505174819 | 28 | 193 | 14.5 | 20.9 | 0.00 | 0.20 | 0.20 | 32 | 1009.3 |
| 20260505174316 | 27 | 212 | 16.1 | 20.9 | 0.00 | 0.20 | 0.20 | 33 | 1009.6 |
| 20260505173812 | 27 | 220 | 12.9 | 30.6 | 0.00 | 0.20 | 0.20 | 33 | 1009.7 |
| 20260505173309 | 27 | 190 | 11.3 | 27.4 | 0.00 | 0.20 | 0.20 | 32 | 1009.6 |
| 20260505172806 | 27 | 213 | 16.1 | 30.6 | 0.00 | 0.20 | 0.20 | 34 | 1009.8 |
| 20260505172305 | 27 | 219 | 9.7 | 22.5 | 0.00 | 0.20 | 0.20 | 35 | 1010.0 |
| 20260505171758 | 27 | 230 | 11.3 | 27.4 | 0.00 | 0.20 | 0.20 | 33 | 1009.8 |
| 20260505171255 | 27 | 246 | 16.1 | 16.1 | 0.00 | 0.20 | 0.20 | 34 | 1009.8 |
| 20260505170751 | 27 | 216 | 14.5 | 20.9 | 0.00 | 0.20 | 0.20 | 35 | 1009.8 |
| 20260505170249 | 27 | 207 | 8.0 | 17.7 | 0.00 | 0.20 | 0.20 | 37 | 1010.0 |
| 20260505165749 | 27 | 203 | 11.3 | 19.3 | 0.00 | 0.20 | 0.20 | 35 | 1009.9 |
| 20260505165246 | 26 | 221 | 9.7 | 12.9 | 0.00 | 0.20 | 0.20 | 38 | 1010.0 |
| 20260505164741 | 26 | 252 | 8.0 | 11.3 | 0.00 | 0.20 | 0.20 | 38 | 1010.3 |
| 20260505164239 | 26 | 276 | 8.0 | 14.5 | 0.00 | 0.20 | 0.20 | 38 | 1010.3 |
| 20260505163737 | 26 | 174 | 8.0 | 24.1 | 0.00 | 0.20 | 0.20 | 38 | 1010.2 |
| 20260505163235 | 26 | 256 | 14.5 | 17.7 | 0.00 | 0.20 | 0.20 | 37 | 1010.6 |
| 20260505162732 | 26 | 217 | 6.4 | 25.7 | 0.00 | 0.20 | 0.20 | 40 | 1010.7 |
| 20260505162229 | 26 | 248 | 9.7 | 19.3 | 0.00 | 0.20 | 0.20 | 37 | 1010.9 |
| 20260505161726 | 26 | 232 | 8.0 | 14.5 | 0.00 | 0.20 | 0.20 | 40 | 1010.7 |
| 20260505161224 | 26 | 186 | 11.3 | 19.3 | 0.00 | 0.20 | 0.20 | 39 | 1010.6 |
| 20260505160721 | 26 | 177 | 3.2 | 25.7 | 0.00 | 0.20 | 0.20 | 41 | 1010.5 |
| 20260505160218 | 26 | 207 | 9.7 | 16.1 | 0.00 | 0.20 | 0.20 | 39 | 1010.8 |
| 20260505153157 | 25 | 219 | 8.0 | 19.3 | 0.00 | 0.20 | 0.20 | 41 | 1011.0 |
| 20260505152654 | 25 | 232 | 11.3 | 14.5 | 0.00 | 0.20 | 0.20 | 40 | 1010.8 |
| 20260505152150 | 25 | 212 | 11.3 | 24.1 | 0.00 | 0.20 | 0.20 | 42 | 1011.1 |
| 20260505151646 | 24 | 228 | 22.5 | 27.4 | 0.00 | 0.20 | 0.20 | 42 | 1011.0 |
| 20260505151143 | 24 | 251 | 16.1 | 20.9 | 0.00 | 0.20 | 0.20 | 43 | 1011.1 |
| 20260505150639 | 24 | 223 | 11.3 | 17.7 | 0.00 | 0.20 | 0.20 | 44 | 1011.1 |
| 20260505150136 | 24 | 237 | 8.0 | 14.5 | 0.00 | 0.20 | 0.20 | 44 | 1011.4 |
| 20260505140605 | 21 | 239 | 6.4 | 14.5 | 0.00 | 0.20 | 0.20 | 51 | 1011.7 |
| 20260505125018 | 18 | 151 | 1.6 | 6.4 | 0.00 | 0.20 | 0.20 | 65 | 1012.3 |
| 20260505124515 | 18 | 331 | 3.2 | 3.2 | 0.00 | 0.20 | 0.20 | 64 | 1012.1 |
| 20260505124011 | 18 | 159 | 1.6 | 3.2 | 0.00 | 0.20 | 0.20 | 70 | 1012.1 |
| 20260505123508 | 17 | 246 | 3.2 | 3.2 | 0.00 | 0.20 | 0.20 | 73 | 1011.9 |
| 20260505123004 | 17 | 274 | 1.6 | 3.2 | 0.00 | 0.20 | 0.20 | 71 | 1012.0 |
| 20260505122501 | 16 | 96 | 3.2 | 4.8 | 0.00 | 0.20 | 0.20 | 74 | 1012.0 |
| 20260505121958 | 16 | 98 | 3.2 | 6.4 | 0.00 | 0.20 | 0.20 | 75 | 1011.9 |
| 20260505121455 | 16 | 127 | 3.2 | 6.4 | 0.00 | 0.20 | 0.20 | 76 | 1011.9 |
| 20260505120951 | 16 | 74 | 3.2 | 4.8 | 0.00 | 0.20 | 0.20 | 78 | 1011.9 |
| 20260505120447 | 15 | 18 | 3.2 | 4.8 | 0.00 | 0.20 | 0.20 | 79 | 1012.1 |
| 20260505115946 | 15 | 340 | 3.2 | 4.8 | 0.00 | 0.20 | 0.20 | 80 | 1012.0 |
| 20260505115443 | 15 | 303 | 3.2 | 4.8 | 0.00 | 0.20 | 0.20 | 82 | 1012.0 |
| 20260505114941 | 15 | 250 | 0.0 | 3.2 | 0.00 | 0.20 | 0.20 | 82 | 1011.9 |
| 20260505114437 | 15 | 17 | 4.8 | 4.8 | 0.00 | 0.20 | 0.20 | 77 | 1011.8 |
| 20260505113934 | 15 | 26 | 1.6 | 3.2 | 0.00 | 0.20 | 0.20 | 80 | 1011.6 |
| 20260505113430 | 15 | 299 | 1.6 | 3.2 | 0.00 | 0.20 | 0.20 | 82 | 1011.9 |
| 20260505112926 | 14 | 79 | 3.2 | 3.2 | 0.00 | 0.20 | 0.20 | 84 | 1011.6 |
| 20260505112424 | 13 | 98 | 3.2 | 4.8 | 0.00 | 0.20 | 0.20 | 85 | 1011.5 |
| 20260505111920 | 13 | 84 | 3.2 | 4.8 | 0.00 | 0.20 | 0.20 | 85 | 1011.8 |
| 20260505111415 | 13 | 108 | 3.2 | 3.2 | 0.00 | 0.20 | 0.20 | 86 | 1011.5 |
| 20260505110911 | 13 | 36 | 3.2 | 3.2 | 0.00 | 0.20 | 0.20 | 85 | 1011.7 |
| 20260505110408 | 13 | 55 | 0.0 | 3.2 | 0.00 | 0.20 | 0.20 | 87 | 1011.6 |
| 20260505101838 | 11 | 315 | 1.6 | 3.2 | 0.00 | 0.20 | 0.20 | 93 | 1011.3 |
| 20260505101333 | 11 | 58 | 0.0 | 1.6 | 0.00 | 0.20 | 0.20 | 92 | 1011.1 |
| 20260505100829 | 11 | 9 | 0.0 | 1.6 | 0.00 | 0.20 | 0.20 | 92 | 1011.1 |
| 20260505100327 | 11 | 304 | 0.0 | 1.6 | 0.00 | 0.20 | 0.20 | 92 | 1011.2 |
| 20260505095822 | 11 | 138 | 0.0 | 3.2 | 0.00 | 0.20 | 0.20 | 91 | 1010.9 |
| 20260505095320 | 11 | 232 | 1.6 | 3.2 | 0.00 | 0.20 | 0.20 | 92 | 1011.0 |
| 20260505094815 | 11 | 154 | 0.0 | 3.2 | 0.00 | 0.20 | 0.20 | 92 | 1011.3 |
| 20260505094313 | 11 | 185 | 3.2 | 3.2 | 0.00 | 0.20 | 0.20 | 91 | 1011.2 |
| 20260505093808 | 11 | 175 | 4.8 | 4.8 | 0.00 | 0.20 | 0.20 | 91 | 1011.0 |
| 20260505093306 | 11 | 152 | 4.8 | 6.4 | 0.00 | 0.20 | 0.20 | 90 | 1011.2 |
| 20260505092803 | 11 | 164 | 1.6 | 3.2 | 0.00 | 0.20 | 0.20 | 90 | 1011.2 |
| 20260505092304 | 11 | 108 | 0.0 | 6.4 | 0.00 | 0.20 | 0.20 | 90 | 1011.2 |
| 20260505091758 | 11 | 215 | 3.2 | 3.2 | 0.00 | 0.20 | 0.20 | 90 | 1011.3 |
| 20260505091256 | 11 | 43 | 0.0 | 4.8 | 0.00 | 0.20 | 0.20 | 90 | 1011.2 |
| 20260505090754 | 11 | 41 | 0.0 | 3.2 | 0.00 | 0.20 | 0.20 | 89 | 1011.2 |
| 20260505090252 | 11 | 147 | 4.8 | 6.4 | 0.05 | 0.20 | 0.20 | 88 | 1011.2 |
| 20260505085749 | 11 | 183 | 3.2 | 4.8 | 0.18 | 0.20 | 0.20 | 87 | 1011.4 |
| 20260505085247 | 11 | 289 | 4.8 | 6.4 | 0.13 | 0.18 | 0.18 | 86 | 1011.5 |
| 20260505084744 | 11 | 2 | 1.6 | 4.8 | 0.00 | 0.18 | 0.18 | 84 | 1011.6 |
| 20260505084243 | 11 | 162 | 3.2 | 6.4 | 0.05 | 0.18 | 0.18 | 83 | 1011.4 |
| 20260505083739 | 12 | 161 | 3.2 | 6.4 | 0.30 | 0.18 | 0.18 | 81 | 1011.2 |
| 20260505083236 | 12 | 115 | 8.0 | 8.0 | 0.97 | 0.15 | 0.15 | 77 | 1011.4 |
| 20260505082732 | 12 | 273 | 1.6 | 6.4 | 0.48 | 0.08 | 0.08 | 73 | 1011.4 |
| 20260505082230 | 12 | 208 | 3.2 | 4.8 | 0.00 | 0.00 | 0.00 | 70 | 1011.3 |
| 20260505081725 | 12 | 149 | 0.0 | 1.6 | 0.00 | 0.00 | 0.00 | 70 | 1011.1 |
| 20260505081223 | 12 | 202 | 3.2 | 6.4 | 0.00 | 0.00 | 0.00 | 70 | 1011.3 |
| 20260505080720 | 12 | 258 | 3.2 | 6.4 | 0.00 | 0.00 | 0.00 | 71 | 1011.3 |
| 20260505080215 | 12 | 291 | 3.2 | 4.8 | 0.00 | 0.00 | 0.00 | 72 | 1010.9 |
| 20260505075711 | 12 | 277 | 1.6 | 3.2 | 0.00 | 0.00 | 0.00 | 72 | 1010.9 |
| 20260505075209 | 12 | 269 | 0.0 | 3.2 | 0.00 | 0.00 | 0.00 | 72 | 1010.8 |
| 20260505074706 | 12 | 304 | 1.6 | 3.2 | 0.00 | 0.00 | 0.00 | 71 | 1010.7 |
| 20260505074203 | 12 | 38 | 0.0 | 1.6 | 0.00 | 0.00 | 0.00 | 70 | 1010.8 |
| 20260505073700 | 12 | 52 | 3.2 | 3.2 | 0.00 | 0.00 | 0.00 | 70 | 1010.7 |
| 20260505073158 | 12 | 23 | 0.0 | 1.6 | 0.00 | 0.00 | 0.00 | 69 | 1010.7 |
| 20260505072654 | 12 | 228 | 0.0 | 1.6 | 0.00 | 0.00 | 0.00 | 68 | 1010.9 |
| 20260505072151 | 12 | 209 | 1.6 | 3.2 | 0.00 | 0.00 | 0.00 | 68 | 1011.0 |
| 20260505071646 | 13 | 242 | 0.0 | 3.2 | 0.00 | 0.00 | 0.00 | 68 | 1010.8 |
| 20260505071144 | 13 | 242 | 0.0 | 1.6 | 0.00 | 0.00 | 0.00 | 67 | 1010.7 |
| 20260505070641 | 13 | 253 | 0.0 | 3.2 | 0.00 | 0.00 | 0.00 | 67 | 1010.9 |
| 20260505070137 | 13 | 301 | 0.0 | 1.6 | 0.00 | 0.00 | 0.00 | 67 | 1010.9 |
| 20260505065633 | 13 | 232 | 0.0 | 3.2 | 0.00 | 0.00 | 0.00 | 67 | 1010.8 |
| 20260505065130 | 13 | 238 | 3.2 | 3.2 | 0.00 | 0.00 | 0.00 | 67 | 1010.9 |
| 20260505064627 | 13 | 234 | 1.6 | 3.2 | 0.00 | 0.00 | 0.00 | 67 | 1010.8 |
| 20260505064125 | 13 | 280 | 1.6 | 3.2 | 0.00 | 0.00 | 0.00 | 67 | 1010.9 |
| 20260505063622 | 13 | 305 | 1.6 | 3.2 | 0.00 | 0.00 | 0.00 | 66 | 1010.8 |
| 20260505063118 | 13 | 266 | 1.6 | 3.2 | 0.00 | 0.00 | 0.00 | 65 | 1010.8 |
| 20260505062615 | 13 | 244 | 0.0 | 3.2 | 0.00 | 0.00 | 0.00 | 63 | 1011.0 |
| 20260505062112 | 14 | 301 | 0.0 | 3.2 | 0.00 | 0.00 | 0.00 | 61 | 1010.9 |
| 20260505061609 | 15 | 351 | 1.6 | 3.2 | 0.00 | 0.00 | 0.00 | 58 | 1011.2 |
| 20260505061107 | 15 | 210 | 1.6 | 3.2 | 0.00 | 0.00 | 0.00 | 56 | 1010.9 |
| 20260505060605 | 15 | 272 | 0.0 | 3.2 | 0.00 | 0.00 | 0.00 | 56 | 1010.9 |
| 20260505055556 | 15 | 176 | 0.0 | 1.6 | 0.00 | 0.00 | 0.00 | 54 | 1010.9 |
| 20260505055053 | 15 | 14 | 1.6 | 3.2 | 0.00 | 0.00 | 0.00 | 54 | 1011.0 |
| 20260505054550 | 15 | 84 | 1.6 | 3.2 | 0.00 | 0.00 | 0.00 | 53 | 1010.9 |
| 20260505054049 | 16 | 114 | 3.2 | 3.2 | 0.00 | 0.00 | 0.00 | 51 | 1010.9 |
| 20260505053545 | 16 | 105 | 1.6 | 4.8 | 0.00 | 0.00 | 0.00 | 51 | 1010.8 |
| 20260505053042 | 16 | 128 | 4.8 | 4.8 | 0.00 | 0.00 | 0.00 | 51 | 1010.9 |
| 20260505052539 | 16 | 171 | 3.2 | 14.5 | 0.00 | 0.00 | 0.00 | 51 | 1010.9 |
| 20260505052037 | 16 | 175 | 6.4 | 6.4 | 0.00 | 0.00 | 0.00 | 51 | 1010.8 |
| 20260505051533 | 16 | 108 | 0.0 | 4.8 | 0.00 | 0.00 | 0.00 | 51 | 1010.8 |
| 20260505051031 | 16 | 109 | 1.6 | 4.8 | 0.00 | 0.00 | 0.00 | 50 | 1010.9 |
| 20260505050529 | 16 | 171 | 3.2 | 8.0 | 0.00 | 0.00 | 0.00 | 50 | 1011.0 |
| 20260505041457 | 17 | 226 | 4.8 | 4.8 | 0.00 | 0.00 | 0.00 | 47 | 1010.9 |
| 20260505040954 | 17 | 225 | 0.0 | 3.2 | 0.00 | 0.00 | 0.00 | 47 | 1010.7 |
| 20260505040452 | 17 | 203 | 4.8 | 4.8 | 0.00 | 0.00 | 0.00 | 46 | 1010.6 |
| 20260505035948 | 17 | 228 | 3.2 | 6.4 | 0.00 | 0.00 | 0.00 | 46 | 1010.7 |
| 20260505035444 | 17 | 176 | 8.0 | 9.7 | 0.00 | 0.00 | 0.00 | 46 | 1010.5 |
| 20260505034942 | 17 | 128 | 0.0 | 3.2 | 0.00 | 0.00 | 0.00 | 47 | 1010.7 |
| 20260505034438 | 17 | 168 | 3.2 | 6.4 | 0.00 | 0.00 | 0.00 | 46 | 1010.4 |
| 20260505033935 | 17 | 140 | 3.2 | 3.2 | 0.00 | 0.00 | 0.00 | 46 | 1010.3 |
| 20260505033432 | 17 | 185 | 4.8 | 6.4 | 0.00 | 0.00 | 0.00 | 45 | 1010.8 |
| 20260505032930 | 17 | 116 | 4.8 | 4.8 | 0.00 | 0.00 | 0.00 | 45 | 1010.6 |
| 20260505032427 | 17 | 215 | 0.0 | 4.8 | 0.00 | 0.00 | 0.00 | 44 | 1010.6 |
| 20260505031923 | 17 | 179 | 3.2 | 6.4 | 0.00 | 0.00 | 0.00 | 44 | 1010.7 |
| 20260505031420 | 17 | 44 | 3.2 | 4.8 | 0.00 | 0.00 | 0.00 | 44 | 1010.7 |
| 20260505030917 | 17 | 260 | 4.8 | 4.8 | 0.00 | 0.00 | 0.00 | 43 | 1010.7 |
| 20260505030413 | 18 | 219 | 0.0 | 9.7 | 0.00 | 0.00 | 0.00 | 43 | 1010.8 |